Pinedale, WY

2:07 PM MDT on May 23, 2017 (GMT -0600)
Wenz

Weather History for KPNA - November, 2011

Change the Weather History Date:

Monday, November 14, 2011

  Actual Average (KBPI) Record (KBPI)
Temperature  
Mean Temperature 24 °F -  
Max Temperature 34 °F 36 °F 63 °F (1999)
Min Temperature 14 °F 10 °F -25 °F (1978)
Degree Days  
Heating Degree Days 41    
Moisture  
Dew Point 14 °F    
Average Humidity 66    
Maximum Humidity 94    
Minimum Humidity 38    
Precipitation  
Precipitation 0.00 in - - ()
Sea Level Pressure  
Sea Level Pressure 29.73 in    
Wind  
Wind Speed 8 mph (ESE)    
Max Wind Speed 28 mph    
Max Gust Speed 40 mph    
Visibility 10 miles    
Events      
Averages and records for this station are not official NWS values.
T = Trace of Precipitation, MM = Missing Value Source: NWS Daily Summary

Daily Weather History Graph

Daily Weather History Graph

Search for Another Location

Airport or City:

Trip Planner

Search our weather history database for the weather conditions in past years. The results will help you decide how hot, cold, wet, or windy it might be!

Date:

Astronomy

Nov. 14, 2011 Rise Set
Actual Time 7:09 AM MST 4:57 PM MST
Civil Twilight 6:39 AM MST 5:27 PM MST
Nautical Twilight 6:05 AM MST 6:01 PM MST
Astronomical Twilight 5:31 AM MST 6:35 PM MST
Moon 8:05 PM MST (11/14) 10:32 AM MST (11/14)
Length of Visible Light 10h 48m
Length of Day
9h 47m
Waning Gibbous, 86% of the Moon is Illuminated
Nov 14
Waning Gibbous
Nov 18
Last Quarter
Nov 24
New
Dec 2
First Quarter
Dec 10
Full

Hourly Weather History & Observations

Time (MST) Temp. Windchill Dew Point Humidity Pressure Visibility Wind Dir Wind Speed Gust Speed Precip Events Conditions
12:15 AM 19.8 °F - 14.9 °F 81% 29.77 in 10.0 mi Calm Calm - N/A   Overcast
12:35 AM 19.8 °F 13.2 °F 14.7 °F 81% 29.77 in 10.0 mi ESE 4.6 mph - N/A   Overcast
12:55 AM 17.8 °F 9.6 °F 15.8 °F 92% 29.77 in 10.0 mi East 5.8 mph - N/A   Overcast
1:15 AM 18.3 °F 9.1 °F 16.3 °F 92% 29.77 in 10.0 mi SE 6.9 mph - N/A   Overcast
1:35 AM 19.0 °F 10.0 °F 16.7 °F 91% 29.77 in 10.0 mi ESE 6.9 mph - N/A   Overcast
1:55 AM 18.9 °F 9.8 °F 17.4 °F 94% 29.76 in 10.0 mi ESE 6.9 mph - N/A   Overcast
2:35 AM 20.7 °F 13.0 °F 15.6 °F 81% 29.76 in 10.0 mi SE 5.8 mph - N/A   Mostly Cloudy
2:55 AM 17.6 °F 9.3 °F 15.8 °F 93% 29.75 in 10.0 mi ESE 5.8 mph - N/A   Mostly Cloudy
3:15 AM 18.1 °F 10.0 °F 16.2 °F 92% 29.75 in 10.0 mi ESE 5.8 mph - N/A   Scattered Clouds
3:35 AM 18.3 °F 9.1 °F 16.3 °F 92% 29.75 in 10.0 mi SE 6.9 mph - N/A   Scattered Clouds
3:55 AM 19.2 °F 11.3 °F 15.8 °F 87% 29.75 in 10.0 mi East 5.8 mph - N/A   Clear
4:15 AM 19.4 °F 10.4 °F 16.0 °F 87% 29.74 in 10.0 mi ESE 6.9 mph - N/A   Clear
4:35 AM 18.1 °F 10.0 °F 15.3 °F 88% 29.74 in 10.0 mi East 5.8 mph - N/A   Clear
5:15 AM 18.3 °F 9.1 °F 16.2 °F 91% 29.74 in 10.0 mi ESE 6.9 mph - N/A   Clear
5:35 AM 17.4 °F 7.1 °F 15.3 °F 91% 29.74 in 10.0 mi SE 8.1 mph - N/A   Clear
5:55 AM 16.5 °F 8.1 °F 14.0 °F 90% 29.74 in 10.0 mi SE 5.8 mph - N/A   Scattered Clouds
6:55 AM 14.5 °F 5.7 °F 12.0 °F 90% 29.73 in 10.0 mi NE 5.8 mph - N/A   Scattered Clouds
7:15 AM 14.7 °F - 12.0 °F 89% 29.74 in 10.0 mi Calm Calm - N/A   Mostly Cloudy
7:35 AM 16.7 °F 11.2 °F 14.4 °F 91% 29.74 in 10.0 mi ENE 3.5 mph - N/A   Overcast
7:55 AM 18.1 °F 10.0 °F 15.1 °F 88% 29.74 in 10.0 mi East 5.8 mph - N/A   Overcast
8:15 AM 20.3 °F 12.5 °F 15.4 °F 81% 29.74 in 10.0 mi East 5.8 mph - N/A   Overcast
8:35 AM 20.1 °F 12.3 °F 17.2 °F 89% 29.74 in 10.0 mi East 5.8 mph - N/A   Mostly Cloudy
8:55 AM 22.5 °F 16.3 °F 18.1 °F 83% 29.74 in 10.0 mi East 4.6 mph - N/A   Mostly Cloudy
9:15 AM 23.9 °F 16.8 °F 17.8 °F 77% 29.73 in 10.0 mi ESE 5.8 mph - N/A   Mostly Cloudy
9:35 AM 26.8 °F 19.3 °F 19.8 °F 75% 29.73 in 10.0 mi East 6.9 mph - N/A   Overcast
9:55 AM 30.7 °F 26.0 °F 16.5 °F 56% 29.72 in 10.0 mi SSE 4.6 mph - N/A   Mostly Cloudy
10:15 AM 32.0 °F 28.7 °F 15.8 °F 51% 29.72 in 10.0 mi SSE 3.5 mph - N/A   Scattered Clouds
10:35 AM 33.1 °F 22.6 °F 16.2 °F 50% 29.71 in 10.0 mi West 16.1 mph 23.0 mph N/A   Clear
10:55 AM 34.5 °F 22.8 °F 14.5 °F 44% 29.71 in 10.0 mi West 21.9 mph 28.8 mph N/A   Clear
11:15 AM 33.8 °F 20.5 °F 11.8 °F 40% 29.70 in 10.0 mi West 27.6 mph 35.7 mph N/A   Clear
11:35 AM 34.2 °F 21.5 °F 12.2 °F 40% 29.70 in 10.0 mi West 25.3 mph 34.5 mph N/A   Clear
11:55 AM 33.4 °F 20.1 °F 11.3 °F 40% 29.70 in 10.0 mi West 27.6 mph 38.0 mph N/A   Clear
12:15 PM 33.4 °F 20.1 °F 10.0 °F 38% 29.69 in 10.0 mi West 27.6 mph 40.3 mph N/A   Clear
12:35 PM 34.0 °F 22.4 °F 13.5 °F 43% 29.69 in 10.0 mi West 20.7 mph 34.5 mph N/A   Clear
12:55 PM 34.2 °F 22.1 °F 12.7 °F 41% 29.70 in 10.0 mi West 23.0 mph 32.2 mph N/A   Clear
1:15 PM 34.2 °F 22.6 °F 12.0 °F 40% 29.70 in 10.0 mi West 20.7 mph 29.9 mph N/A   Clear
1:35 PM 33.6 °F 21.9 °F 11.8 °F 41% 29.70 in 10.0 mi West 20.7 mph 33.4 mph N/A   Clear
1:55 PM 34.2 °F 22.6 °F 10.9 °F 38% 29.69 in 10.0 mi West 20.7 mph 28.8 mph N/A   Clear
2:15 PM 33.3 °F 20.6 °F 10.0 °F 38% 29.70 in 10.0 mi West 24.2 mph 34.5 mph N/A   Clear
2:35 PM 32.0 °F 18.4 °F 9.0 °F 38% 29.70 in 10.0 mi West 26.5 mph 33.4 mph N/A   Clear
2:55 PM 33.1 °F 20.3 °F 9.9 °F 38% 29.71 in 10.0 mi West 24.2 mph 31.1 mph N/A   Clear
3:15 PM 32.9 °F 22.0 °F 9.9 °F 38% 29.71 in 10.0 mi West 17.3 mph 27.6 mph N/A   Clear
3:35 PM 32.5 °F 20.8 °F 9.7 °F 39% 29.71 in 10.0 mi West 19.6 mph 25.3 mph N/A   Clear
3:55 PM 32.0 °F 22.5 °F 11.8 °F 43% 29.71 in 10.0 mi WNW 12.7 mph 17.3 mph N/A   Clear
4:15 PM 32.0 °F 23.0 °F 11.7 °F 43% 29.72 in 10.0 mi WNW 11.5 mph - N/A   Clear
4:35 PM 29.8 °F 23.0 °F 12.4 °F 48% 29.73 in 10.0 mi WNW 6.9 mph - N/A   Clear
4:55 PM 27.9 °F 21.5 °F 12.2 °F 52% 29.74 in 10.0 mi North 5.8 mph - N/A   Clear
5:15 PM 26.4 °F 18.0 °F 12.9 °F 57% 29.74 in 10.0 mi NNE 8.1 mph - N/A   Clear
5:35 PM 25.5 °F 21.3 °F 13.8 °F 61% 29.75 in 10.0 mi NE 3.5 mph - N/A   Clear
5:55 PM 24.6 °F 16.7 °F 14.4 °F 65% 29.75 in 10.0 mi NE 6.9 mph - N/A   Clear
6:15 PM 24.3 °F 18.4 °F 14.4 °F 66% 29.76 in 10.0 mi North 4.6 mph - N/A   Clear
6:35 PM 25.9 °F - 12.4 °F 57% 29.77 in 10.0 mi Calm Calm - N/A   Clear
6:55 PM 24.6 °F - 13.5 °F 63% 29.77 in 10.0 mi Calm Calm - N/A   Clear
7:15 PM 24.8 °F 20.5 °F 13.5 °F 62% 29.77 in 10.0 mi SSE 3.5 mph - N/A   Clear
7:35 PM 24.3 °F 18.4 °F 12.2 °F 60% 29.77 in 10.0 mi East 4.6 mph - N/A   Clear
7:55 PM 23.7 °F - 13.6 °F 65% 29.77 in 10.0 mi Calm Calm - N/A   Clear
8:15 PM 24.6 °F 18.8 °F 12.9 °F 61% 29.77 in 10.0 mi SW 4.6 mph - N/A   Clear
8:35 PM 25.3 °F - 11.7 °F 56% 29.77 in 10.0 mi Calm Calm - N/A   Clear
8:55 PM 25.2 °F - 10.6 °F 54% 29.77 in 10.0 mi Calm Calm - N/A   Clear
9:15 PM 23.7 °F - 11.3 °F 59% 29.77 in 10.0 mi Calm Calm - N/A   Clear
9:35 PM 23.9 °F - 11.8 °F 60% 29.77 in 10.0 mi Calm Calm - N/A   Clear
9:55 PM 23.2 °F - 11.8 °F 62% 29.78 in 10.0 mi Calm Calm - N/A   Clear
10:15 PM 24.3 °F - 11.8 °F 59% 29.79 in 10.0 mi Calm Calm - N/A   Clear
10:35 PM 23.7 °F 15.6 °F 13.1 °F 64% 29.79 in 10.0 mi West 6.9 mph - N/A   Clear
10:55 PM 23.9 °F 16.8 °F 14.0 °F 66% 29.78 in 10.0 mi WNW 5.8 mph - N/A   Clear
11:15 PM 23.9 °F 18.0 °F 14.4 °F 67% 29.78 in 10.0 mi WNW 4.6 mph - N/A   Scattered Clouds
11:35 PM 24.1 °F 19.7 °F 14.5 °F 67% 29.78 in 10.0 mi West 3.5 mph - N/A   Scattered Clouds
11:55 PM 24.3 °F 12.7 °F 16.2 °F 71% 29.78 in 10.0 mi West 12.7 mph 17.3 mph N/A   Scattered Clouds